Location: Betra
(48.4113°N, 8.6634°E)
Time: 20:48:34
(UTC+00:00)

FENGYUN 3A - Pass Details

Date: 23 May 2024
Orbit: 821 x 835 km, 98.6° (Epoch: 16 June)

Event Time Altitude Azimuth Distance (km) Brightness Sun altitude
Rises 02:14:33 0° 12° (NNE) 3,372 8.0 -10.9°
Reaches altitude 10° 02:16:55 10° 10° (N) 2,433 7.1 -10.7°
Maximum altitude 02:22:16 70° 288° (WNW) 876 3.7 -10.1°
Enters shadow 02:27:28 11° 206° (SSW) 2,372 5.4 -9.5°
